This demonstration page uses our WeatherBlox Daily Observations layout. Learn more.

Left ArrowRight Arrow

36.17497, -115.13722

Hourly Observations for April 22, 2016

Temp ( °F °C ) Dew Point ( °F °C ) Humidity (%) Winds ( mph kmh ) Pressure ( in mb ) Visibility ( mi km ) Precip ( " mm )
12:53 am 00:53 Mostly Clear 73 22.8 20 -6.7 13 13 SSW 5 7 29.8 1009 N/A 0 0
1:53 am 01:53 Clear 70 21.1 21 -6.1 16 16 Calm 29.79 1009 10 16.0934 0 0
2:53 am 02:53 Clear 68 20 23 -5 18 18 W 3 6 29.78 1009 10 16.0934 0 0
3:53 am 03:53 Clear 72 22.2 18 -7.8 13 13 SSE 9 15 29.79 1009 10 16.0934 0 0
4:53 am 04:53 Clear 70 21.1 17 -8.3 13 13 SE 7 11 29.79 1009 10 16.0934 0 0
5:53 am 05:53 Clear 67 19.4 19 -7.2 16 16 NNE 5 7 29.8 1009 10 16.0934 0 0
6:53 am 06:53 Sunny 68 20 19 -7.2 15 15 VRB 3 6 29.82 1010 10 16.0934 0 0
7:53 am 07:53 Sunny 72 22.2 15 -9.4 11 11 E 3 6 29.82 1010 10 16.0934 0 0
8:53 am 08:53 Sunny 76 24.4 20 -6.7 12 12 E 6 9 29.82 1010 10 16.0934 0 0
9:53 am 09:53 Sunny 81 27.2 16 -8.9 9 9 SSE 14 22 29.81 1010 10 16.0934 0 0
10:53 am 10:53 Sunny 85 29.4 15 -9.4 7 7 SSW 18 30 29.8 1009 10 16.0934 0 0
11:53 am 11:53 Sunny 88 31.1 20 -6.7 8 8 SSW 23 37 29.78 1009 10 16.0934 0 0
12:53 pm 12:53 Sunny 90 32.2 22 -5.6 8 8 SW 24 39 29.75 1008 10 16.0934 0 0
1:53 pm 13:53 Sunny 91 32.8 23 -5 8 8 SW 25 41 29.74 1007 9 14.48406 0 0
2:53 pm 14:53 Sunny 91 32.8 23 -5 8 8 SW 23 37 29.71 1006 10 16.0934 0 0
3:53 pm 15:53 Sunny 91 32.8 21 -6.1 8 8 SW 30 48 29.67 1005 10 16.0934 0 0
4:53 pm 16:53 Sunny 89 31.7 22 -5.6 8 8 SW 21 33 29.65 1004 10 16.0934 0 0
5:53 pm 17:53 Sunny 88 31.1 22 -5.6 9 9 SW 24 39 29.64 1004 10 16.0934 0 0
6:53 pm 18:53 Sunny 84 28.9 23 -5 10 10 SW 22 35 29.64 1004 10 16.0934 0 0
7:53 pm 19:53 Clear 81 27.2 25 -3.9 13 13 WSW 21 33 29.66 1004 10 16.0934 0 0
8:53 pm 20:53 Clear 76 24.4 28 -2.2 17 17 W 26 43 29.67 1005 10 16.0934 0 0
9:53 pm 21:53 Clear 72 22.2 32 0 23 23 SW 24 39 29.72 1006 10 16.0934 0 0
10:53 pm 22:53 Clear 71 21.7 33 0.6 25 25 WSW 13 20 29.74 1007 10 16.0934 0 0
11:53 pm 23:53 Clear 68 20 38 3.3 33 33 NW 6 9 29.77 1008 10 16.0934 0 0

Powered by AerisWeather